Regional Weather Roundup
Issued by NWS

Home | Current Version | Previous Version | Text Only | Print | Product List | Glossary Off
Versions: 1 2 3 4 5 6 7 8 9 10 11 12 13 14 15 16 17 18 19 20 21 22 23 24 25 26 27 28 29 30 31 32 33 34 35 36 37 38 39 40 41 42 43 44 45 46 47 48 49 50

000
ASUS45 KCYS 100810
RWRWY

WYOMING REGIONAL WEATHER ROUNDUP
NATIONAL WEATHER SERVICE CHEYENNE WY
200 AM MDT THU JUL 10 2014

NOTE:  "FAIR" INDICATES FEW OR NO CLOUDS BELOW 12,000 FEET
WITH NO SIGNIFICANT WEATHER AND/OR OBSTRUCTIONS TO VISIBILITY.

WYZ001-100900-
YELLOWSTONE NATIONAL PARK

CITY           SKY/WX    TMP DP  RH WIND       PRES   REMARKS
LK YELLOWSTONE   N/A     57  48  72 CALM      30.23S
W YELLOWSTONE  NOT AVBL

$$
WYZ002>013-054>058-071-098>099-100900-
NORTHERN WYOMING

CITY           SKY/WX    TMP DP  RH WIND       PRES   REMARKS
JACKSON        CLOUDY    64  50  59 S8        30.13R
CODY           NOT AVBL
GREYBULL       MOCLDY    71  58  63 S3        29.85S
WORLAND        MOCLDY    68  54  60 SW5       29.87S
SHERIDAN       CLOUDY    70  54  56 VRB3      29.88S
BUFFALO        CLOUDY    71  56  58 VRB7      29.99R THUNDER HAZE
GILLETTE       CLOUDY    66  60  81 SE18G25   29.89F
HULETT         PTSUNNY   63  55  77 MISG      29.99
NEWCASTLE      FAIR      63  55  77 NW9       29.98

$$
WYZ014>020-022>026-101>103-100900-
CENTRAL WYOMING

CITY           SKY/WX    TMP DP  RH WIND       PRES   REMARKS
BIG PINEY      MOCLDY    63  46  54 NW8       30.16F
PINEDALE       PTSUNNY   61  50  67 CALM      30.18F
DUBOIS         FAIR      64  36  34 NW18      30.13S
LANDER         MOCLDY    72  41  32 S6        29.98S
RIVERTON       PTCLDY    70  47  43 NW9       29.99R
CASPER         CLEAR     76  43  30 SW17      29.93F
DOUGLAS        CLEAR     67  58  72 SE13      29.95F

$$
WYZ021-027>030-104>119-100900-
SOUTHERN WYOMING

CITY           SKY/WX    TMP DP  RH WIND       PRES   REMARKS
EVANSTON       MOCLDY    63  48  58 S8        30.19F
KEMMERER       PTSUNNY   61  46  59 W3        30.20S
FORT BRIDGER   FAIR      64  48  56 W7        30.19F
ROCK SPRINGS   CLOUDY    69  41  36 W3        30.15S
DIXON          FAIR      62  44  51 NE6       30.19S
RAWLINS        PTCLDY    68  40  35 SW15      30.13F
SARATOGA       FAIR      64  37  36 S8        30.18F
LARAMIE        MOCLDY    61  42  49 SW8       30.16F
CHEYENNE       MOCLDY    64  50  60 W7        30.08F
TORRINGTON     CLEAR     60  58  92 E9        29.93F

$$


USA.gov is the U.S. government's official web portal to all federal, state and local government web resources and services.